[[{"header":{"parameterUnit":"m.s-1","parameterCategory":1,"la1":30.2991,"la2":30.254,"lo1":-89.0895,"lo2":-89.0444,"dy":0.0017,"dx":0.0017,"nx":28,"ny":28,"refTime":"2025-04-07T09:00:00:Z","depth":0,"parameterNumber":2,"parameterNumberName":"U-component_of_WINDS"},"data":[0,0,0,0,0,0,0,0,0,0,0,0,0,0,0,0,0,0,0,0,0,0,0,0,0,0,0,0,0,0,0,0,0,0,0,0,0,0,0,0,0,0,0,0,0,0,0,0,0,0,0,0,0,0,0,0,0,0,1.1246,1.1245,0,1.1173,1.1172,1.1171,1.1112,1.1112,1.1111,1.111,1.1035,1.1034,1.1032,0,0,0,0,0,0,0,0,0,0,0,0,0,1.1334,1.1333,1.1246,1.1245,1.1244,1.1173,1.1172,1.1171,1.1112,1.1112,1.1111,1.111,1.1036,1.1034,1.1032,0,0,0,0,0,0,0,0,0,0,0,0,0,1.1282,1.1333,1.1246,1.1206,1.1202,1.1173,1.1172,1.1171,1.1112,1.1112,1.1111,1.111,1.1036,1.1034,1.1032,1.1037,0,0,1.1025,1.1024,0,0,0,0,0,0,0,0,1.1285,1.1279,1.1213,1.1209,1.1204,1.1151,1.1175,1.1126,1.1113,1.1146,1.111,1.1109,1.1074,1.1069,1.1057,1.1033,1.103,1.1025,1.1024,1.1023,1.1022,0,0,0,0,0,0,0,1.1289,1.1282,1.1217,1.1212,1.1207,1.1192,1.1184,1.1166,1.1116,1.1143,1.1139,1.1131,1.1072,1.1059,1.1055,1.1029,1.1025,1.1023,1.1022,1.1021,1.1005,1.1006,0,0,0,0,0,0,1.1299,1.1285,1.1219,1.1215,1.1243,1.1191,1.1182,1.1169,1.1116,1.1107,1.1132,1.1129,1.1064,1.1058,1.1052,1.1054,1.1023,1.1021,1.102,1.1005,1.1006,1.1007,0,0,0,0,0,0,1.1301,1.1293,1.1222,1.1249,1.1238,1.1191,1.1176,1.1168,1.1155,1.1108,1.1098,1.1129,1.1063,1.1055,1.1041,1.1051,1.102,1.1018,1.1003,1.1005,1.1006,1.1058,0,0,0,0,0,0,1.1304,1.1294,1.1296,1.1249,1.1237,1.1212,1.1177,1.1167,1.1152,1.1147,1.1102,1.1094,1.1061,1.1045,1.1039,1.1047,1.1016,1.1002,1.1004,1.1006,1.1055,1.1061,1.1066,0,0,0,0,0,1.1307,1.1313,1.1296,1.1288,1.1238,1.1213,1.1206,1.1169,1.1153,1.1154,1.1123,1.1095,1.1051,1.1044,1.1037,1.1044,1.1002,1.1004,1.1006,1.1053,1.106,1.1066,0,0,0,0,0,0,1.1361,1.1306,1.1286,1.1278,1.1251,1.1203,1.1203,1.1177,1.1154,1.115,1.1105,1.1095,1.1086,1.1064,1.1057,1.1047,1.1023,1.1023,1.1061,1.1067,1.1073,1.1078,1.1014,0,0,0,0,0,1.1372,1.1357,1.1309,1.1306,1.1294,1.1251,1.1239,1.1212,1.1182,1.117,1.1139,1.1111,1.109,1.1078,1.1056,1.1053,1.1042,1.1054,1.106,1.1065,1.1065,1.1062,1.1067,1.1013,1.1013,1.1013,0,0,1.1394,1.1362,1.1355,1.1316,1.1292,1.1277,1.1241,1.1227,1.1215,1.1168,1.1153,1.1129,1.1095,1.1086,1.108,1.1067,1.1078,1.1067,1.1071,1.1069,1.1064,1.1069,1.1074,1.1014,1.1014,1.1014,0,0,1.1427,1.1402,1.1396,1.1373,1.1337,1.1309,1.1308,1.1265,1.1247,1.1231,1.1196,1.1181,1.1147,1.1124,1.1108,1.1134,1.1108,1.1129,1.1156,1.1153,1.1158,1.1161,1.117,1.1174,1.113,1.113,1.113,0,1.1459,1.1435,1.1396,1.1384,1.1368,1.1326,1.132,1.1299,1.1259,1.1248,1.1235,1.1191,1.1165,1.1151,1.1157,1.1146,1.1143,1.1133,1.116,1.1163,1.1166,1.1174,1.1178,1.1133,1.1133,1.1132,1.1132,0,1.1476,1.146,1.146,1.1422,1.1406,1.1398,1.1358,1.1346,1.1322,1.1296,1.1281,1.1248,1.122,1.1215,1.1191,1.1197,1.119,1.1169,1.1143,1.1175,1.1181,1.1184,1.1137,1.1136,1.1135,1.1134,0,0,1.1539,1.1481,1.1482,1.1464,1.1422,1.1409,1.1399,1.1372,1.1363,1.1337,1.1327,1.13,1.128,1.1262,1.1236,1.1233,1.1256,1.1213,1.1211,1.1221,1.1261,1.1276,1.128,1.1239,1.1239,1.124,1.1264,0,1.1565,1.1543,1.1509,1.1499,1.1484,1.1444,1.1435,1.1409,1.1385,1.1368,1.1341,1.1322,1.1299,1.1287,1.1284,1.1254,1.1263,1.1252,1.1229,1.1229,1.1238,1.1284,1.13,1.1324,1.1266,1.1267,1.1267,0,1.1591,1.1567,1.1556,1.1516,1.1509,1.1501,1.1474,1.1459,1.1428,1.1411,1.1392,1.1363,1.135,1.1329,1.1311,1.1304,1.1293,1.1277,1.1277,1.1272,1.1249,1.128,1.1331,1.1334,1.1271,1.127,1.127,0,1.1637,1.1603,1.1592,1.1578,1.1531,1.1527,1.1508,1.1476,1.1462,1.1439,1.1429,1.1405,1.1391,1.1373,1.1338,1.1326,1.1324,1.13,1.1309,1.131,1.1309,1.1309,1.1358,1.1304,1.1304,1.1304,1.1304,0,1.1668,1.1663,1.1612,1.1605,1.1598,1.1559,1.1553,1.153,1.1503,1.1491,1.1456,1.1445,1.1401,1.1386,1.1359,1.1348,1.1342,1.1328,1.132,1.133,1.1332,1.1321,1.1318,1.1305,1.1304,1.1304,1.1304,0,1.1718,1.1684,1.1669,1.1627,1.1616,1.1613,1.1576,1.1568,1.1543,1.1528,1.1522,1.1482,1.1462,1.1426,1.1396,1.1378,1.1373,1.1361,1.1383,1.1378,1.1389,1.1389,1.1432,1.1435,1.138,1.1381,1.1381,0,1.174,1.1734,1.1692,1.1682,1.1663,1.1647,1.1633,1.1595,1.1582,1.1548,1.1544,1.1522,1.1502,1.1472,1.144,1.1417,1.1403,1.142,1.14,1.141,1.1403,1.1403,1.1403,1.1425,1.1425,1.1426,1.1426,0,1.1781,1.1765,1.1746,1.1722,1.1706,1.1685,1.1662,1.1656,1.1613,1.16,1.1579,1.1564,1.1534,1.1512,1.1485,1.1464,1.1438,1.1434,1.1434,1.1444,1.1456,1.1449,1.1395,1.1432,1.1432,1.1431,1.1431,1.1431,1.1817,1.1811,1.178,1.176,1.1739,1.1719,1.171,1.1683,1.1666,1.1638,1.1617,1.1599,1.1569,1.153,1.1512,1.1497,1.1484,1.1486,1.1486,1.1487,1.149,1.146,1.1492,1.1492,1.1491,1.1491,1.1491,0,1.1856,1.1835,1.1817,1.1787,1.1772,1.1749,1.1723,1.1712,1.1696,1.1671,1.1652,1.1629,1.1609,1.1576,1.1552,1.1546,1.1534,1.1541,1.1541,1.1537,1.1503,1.1504,1.1552,1.1552,1.1552,1.1552,1.1552,1.1552,1.1874,1.1863,1.1843,1.1821,1.18,1.1782,1.1769,1.175,1.173,1.1706,1.1689,1.1668,1.164,1.1614,1.1594,1.1585,1.1578,1.1589,1.1576,1.1545,1.1539,1.1534,1.1535,1.1588,1.1588,1.1611,1.1611,1.1611]},{"header":{"parameterUnit":"m.s-1","parameterCategory":1,"la1":30.2991,"la2":30.254,"lo1":-89.0895,"lo2":-89.0444,"dy":0.0017,"dx":0.0017,"nx":28,"ny":28,"refTime":"2025-04-07T09:00:00:Z","depth":0,"parameterNumber":3,"parameterNumberName":"V-component_of_WINDS"},"data":[0,0,0,0,0,0,0,0,0,0,0,0,0,0,0,0,0,0,0,0,0,0,0,0,0,0,0,0,0,0,0,0,0,0,0,0,0,0,0,0,0,0,0,0,0,0,0,0,0,0,0,0,0,0,0,0,0,0,-4.5669,-4.5672,0,-4.5899,-4.5902,-4.5904,-4.5869,-4.5865,-4.5861,-4.5857,-4.6091,-4.61,-4.611,0,0,0,0,0,0,0,0,0,0,0,0,0,-4.5197,-4.5206,-4.5669,-4.5672,-4.5675,-4.5898,-4.5902,-4.5905,-4.587,-4.5865,-4.586,-4.5856,-4.6087,-4.6099,-4.6111,0,0,0,0,0,0,0,0,0,0,0,0,0,-4.5412,-4.5209,-4.5668,-4.5684,-4.5688,-4.5898,-4.5902,-4.5906,-4.5871,-4.5865,-4.5859,-4.5853,-4.6083,-4.6098,-4.6112,-4.6321,0,0,-4.6157,-4.6164,0,0,0,0,0,0,0,0,-4.54,-4.5429,-4.5679,-4.5683,-4.5688,-4.5849,-4.5821,-4.6045,-4.5872,-4.5801,-4.5857,-4.5851,-4.6015,-4.6035,-4.6091,-4.6331,-4.6341,-4.6159,-4.6168,-4.6174,-4.6178,0,0,0,0,0,0,0,-4.5385,-4.5419,-4.576,-4.5683,-4.5688,-4.5679,-4.5703,-4.5863,-4.5938,-4.5807,-4.5805,-4.5833,-4.6016,-4.6077,-4.6096,-4.6345,-4.6158,-4.6171,-4.6181,-4.6186,-4.6768,-4.6774,0,0,0,0,0,0,-4.5366,-4.5407,-4.5752,-4.5767,-4.5527,-4.5692,-4.5719,-4.5803,-4.5936,-4.5951,-4.5837,-4.583,-4.6054,-4.6079,-4.6104,-4.6357,-4.6174,-4.6188,-4.6196,-4.6761,-4.6769,-4.6777,0,0,0,0,0,0,-4.5356,-4.5397,-4.5743,-4.5587,-4.563,-4.5707,-4.5801,-4.5811,-4.5871,-4.5959,-4.5972,-4.5886,-4.6051,-4.6083,-4.6267,-4.6365,-4.6194,-4.6208,-4.6754,-4.6764,-4.6773,-4.6865,0,0,0,0,0,0,-4.5343,-4.5394,-4.5474,-4.5589,-4.5638,-4.5904,-4.5807,-4.582,-4.5897,-4.589,-4.6008,-4.6022,-4.6049,-4.6245,-4.6282,-4.6382,-4.6219,-4.6745,-4.6758,-4.677,-4.6853,-4.6876,-4.6896,0,0,0,0,0,-4.5326,-4.5491,-4.5479,-4.5521,-4.5741,-4.5909,-4.5938,-4.5966,-4.5905,-4.5987,-4.6043,-4.6018,-4.6348,-4.6265,-4.6305,-4.6411,-4.6739,-4.6755,-4.6769,-4.6844,-4.6872,-4.6896,0,0,0,0,0,0,-4.5385,-4.5506,-4.5494,-4.5701,-4.5795,-4.5903,-4.6007,-4.5995,-4.6108,-4.6096,-4.6125,-4.6152,-4.6339,-4.6393,-4.6298,-4.662,-4.6535,-4.6559,-4.6578,-4.6605,-4.6627,-4.661,-4.6232,0,0,0,0,0,-4.5422,-4.555,-4.5648,-4.5821,-4.5869,-4.593,-4.6004,-4.6018,-4.6116,-4.6156,-4.6226,-4.6322,-4.6447,-4.6529,-4.6649,-4.686,-4.6886,-4.6953,-4.6975,-4.6992,-4.7012,-4.7128,-4.716,-4.6825,-4.6825,-4.6825,0,0,-4.55,-4.5582,-4.5661,-4.5835,-4.591,-4.6041,-4.5964,-4.6105,-4.6203,-4.6177,-4.6356,-4.641,-4.6519,-4.6718,-4.6809,-4.6769,-4.711,-4.7011,-4.7024,-4.7035,-4.7147,-4.7178,-4.7207,-4.6835,-4.6833,-4.6832,0,0,-4.571,-4.5784,-4.5937,-4.6013,-4.6128,-4.6167,-4.6203,-4.6314,-4.6349,-4.6529,-4.6513,-4.6628,-4.6843,-4.6922,-4.699,-4.7229,-4.721,-4.7267,-4.7379,-4.7492,-4.7518,-4.7542,-4.7628,-4.7658,-4.7286,-4.7287,-4.7287,0,-4.5792,-4.599,-4.6016,-4.616,-4.6237,-4.6221,-4.6375,-4.6448,-4.6595,-4.6649,-4.6602,-4.6871,-4.6944,-4.7161,-4.7219,-4.7274,-4.7317,-4.7254,-4.7513,-4.7536,-4.7559,-4.7641,-4.7673,-4.7293,-4.7292,-4.7291,-4.7291,0,-4.6086,-4.6223,-4.6332,-4.6476,-4.6565,-4.6713,-4.6762,-4.6848,-4.6854,-4.6898,-4.7081,-4.7167,-4.7304,-4.7356,-4.7362,-4.7575,-4.7546,-4.7506,-4.7421,-4.7597,-4.7674,-4.7706,-4.7302,-4.73,-4.7298,-4.7296,0,0,-4.634,-4.6496,-4.6536,-4.6601,-4.6726,-4.6832,-4.6979,-4.7115,-4.7189,-4.729,-4.7415,-4.7597,-4.756,-4.7638,-4.7652,-4.7751,-4.7935,-4.7699,-4.7702,-4.774,-4.8175,-4.8205,-4.8241,-4.7923,-4.7929,-4.7934,-4.8166,0,-4.6562,-4.6823,-4.6851,-4.7084,-4.7211,-4.7197,-4.7325,-4.7415,-4.746,-4.7573,-4.7622,-4.7751,-4.7693,-4.774,-4.7837,-4.7892,-4.8023,-4.7876,-4.8039,-4.8044,-4.8013,-4.8282,-4.8315,-4.8529,-4.8196,-4.8201,-4.8205,0,-4.6856,-4.6968,-4.7214,-4.7321,-4.7375,-4.749,-4.7616,-4.7725,-4.7827,-4.7852,-4.7939,-4.794,-4.8091,-4.8,-4.8208,-4.8108,-4.8176,-4.8213,-4.8222,-4.8239,-4.8136,-4.8307,-4.8598,-4.8631,-4.8253,-4.8249,-4.8246,0,-4.7018,-4.7229,-4.7404,-4.746,-4.759,-4.7671,-4.7728,-4.7824,-4.7903,-4.8013,-4.8065,-4.819,-4.8259,-4.8355,-4.8391,-4.8321,-4.8597,-4.8509,-4.8623,-4.8622,-4.8683,-4.8679,-4.899,-4.8725,-4.8724,-4.8724,-4.8723,0,-4.7264,-4.7415,-4.7479,-4.7587,-4.7755,-4.7785,-4.7951,-4.8005,-4.809,-4.8207,-4.8201,-4.8311,-4.8351,-4.8467,-4.8495,-4.8663,-4.8694,-4.8719,-4.8725,-4.872,-4.8717,-4.8766,-4.8752,-4.8732,-4.873,-4.8729,-4.8727,0,-4.7474,-4.7523,-4.7712,-4.7819,-4.7849,-4.7969,-4.806,-4.8164,-4.8207,-4.8355,-4.8391,-4.8459,-4.8595,-4.8639,-4.8804,-4.8823,-4.902,-4.9012,-4.8986,-4.8987,-4.9099,-4.9088,-4.9453,-4.9503,-4.9204,-4.9207,-4.9209,0,-4.7628,-4.7745,-4.7864,-4.7943,-4.8004,-4.813,-4.8211,-4.8245,-4.8329,-4.8453,-4.8542,-4.8677,-4.8787,-4.9006,-4.9069,-4.9194,-4.919,-4.9309,-4.9209,-4.9201,-4.9193,-4.9186,-4.9198,-4.9329,-4.9332,-4.9334,-4.9336,0,-4.7897,-4.7916,-4.8033,-4.816,-4.8257,-4.8358,-4.8456,-4.852,-4.8567,-4.8663,-4.8803,-4.8888,-4.9056,-4.9191,-4.9319,-4.9377,-4.9365,-4.9367,-4.94,-4.9398,-4.9378,-4.9391,-4.9038,-4.9359,-4.9357,-4.9355,-4.9354,-4.9353,-4.8085,-4.8188,-4.8288,-4.842,-4.8497,-4.8588,-4.869,-4.8746,-4.8864,-4.9004,-4.9016,-4.9167,-4.9265,-4.9436,-4.95,-4.9618,-4.9584,-4.9632,-4.9644,-4.9656,-4.9665,-4.9358,-4.9641,-4.9641,-4.964,-4.964,-4.9639,0,-4.8355,-4.8419,-4.8539,-4.8676,-4.8779,-4.8759,-4.8866,-4.8953,-4.9087,-4.9179,-4.9288,-4.9448,-4.9579,-4.9651,-4.9781,-4.9862,-4.986,-4.9895,-4.989,-4.9903,-4.9688,-4.9647,-4.9894,-4.9894,-4.9894,-4.9894,-4.9894,-4.9894,-4.8507,-4.8681,-4.8711,-4.8921,-4.8984,-4.9133,-4.9195,-4.9279,-4.9353,-4.9533,-4.9642,-4.9688,-4.9773,-4.9909,-5.0027,-5.0045,-5.0093,-5.0133,-5.0147,-4.9945,-4.9918,-4.9894,-4.9855,-5.0143,-5.0143,-5.0353,-5.0355,-5.0357]}]]